Tracking 19903 objects as of 16-Oct-2019
HD Live streaming from Space Station
objects crossing your sky now

COSMOS 1275 DEB

Track COSMOS 1275 DEB now!
10-day predictions


NORAD ID: 13483
Int'l Code: 1981-053GF
Perigee: 853.7 km
Apogee: 867.8 km
Inclination: 82.9 °
Period: 102.0 minutes
Semi major axis: 7231 km
RCS: 0.0105 m2 (small)
Launch date: June 4, 1981
Source: Commonwealth of Independent States (former USSR) (CIS)
Launch site: PLESETSK MISSILE AND SPACE COMPLEX (PKMTR)

Note: This is SATELLITE DEBRIS
aabbcc
Your satellite tracking list
Your tracking list is empty




NASA's NSSDC Master Catalog

Two Line Element Set (TLE):
1 13483U 81053GD  19288.86253812 +.00000561 +00000-0 +29938-3 0  9995
2 13483 082.9284 221.2419 0009738 147.6581 272.6927 14.11677890902789
Source of the keplerian elements: AFSPC